#timestamp,LO_Frequency,Hit,StdDev 
1570028415.6,286046998.4,N
1570028435.4,286047001.1,N
1570028455.3,286047000.2,N
1570028475.1,286047004.0,Y
1570028495.9,286047001.8,P
1570028515.7,286046999.8,N
1570028535.5,286046998.2,N
1570028555.4,286046999.9,N
1570028575.2,286046999.9,N
1570028595.0,286047002.3,N
1570028596.0,286047002.3,N
1570028615.8,286047000.2,N
1570028635.6,286046999.9,N
1570028655.5,286047000.1,N
1570028675.3,286047000.6,N
1570028695.1,286047000.0,N
1570028715.9,286046998.5,N
1570028735.7,286046998.5,N
1570028755.6,286046998.4,N
1570028775.4,286046999.0,N
1570028795.2,286047001.2,N
1570028815.1,286047002.8,N
1570028816.0,286047002.8,N
1570028835.8,286047001.8,N
1570028855.7,286047001.7,N
1570028875.5,286047001.3,N
1570028895.3,286047003.7,N
1570028915.2,286047003.6,N
1570028935.0,286047001.8,N
1570028935.9,286047001.8,N
1570028955.8,286047001.8,N
1570028975.6,286047001.5,N
1570028995.4,286047000.0,N
1570029015.3,286046999.8,N
1570029035.1,286046998.5,N
1570029055.8,286046999.0,N
1570029075.7,286046998.2,N
1570029095.5,286047002.8,N
1570029115.4,286047000.1,N
1570029135.2,286047001.7,N
1570029155.0,286047001.4,N
1570029155.9,286047001.4,N
1570029175.8,286047001.3,N
1570029195.6,286047002.5,N
1570029215.4,286047004.4,N
1570029235.3,286047002.9,N
1570029255.1,286047003.0,N
1570029275.9,286047003.5,N
1570029295.7,286047004.4,N
1570029315.5,286047002.4,N
1570029335.4,286047000.9,N
1570029355.2,286047000.2,N
1570029375.1,286047004.3,N
1570029376.0,286047004.3,N
1570029395.8,286047001.6,N
1570029415.6,286047001.7,N
1570029435.5,286047001.5,N
1570029455.3,286047004.3,N
1570029475.1,286047001.8,N
1570029495.9,286047000.6,N
1570029515.7,286046998.7,N
1570029535.6,286047000.8,N
1570029555.4,286046999.9,N
1570029575.2,286047000.5,N
1570029595.1,286047000.0,N
1570029596.0,286047000.0,N
1570029615.8,286047002.5,N
1570029635.7,286047001.3,N
1570029655.5,286047002.0,N
1570029675.3,286047001.3,N
1570029695.2,286047003.7,N
1570029715.0,286047003.3,N
1570029715.9,286047003.3,N
1570029735.8,286047003.2,N
1570029755.6,286047003.0,N
1570029775.4,286047003.4,N
1570029795.3,286047007.3,Y
1570029815.1,286047003.3,P
1570029835.9,286047003.1,P
1570029855.7,286047002.2,P
1570029875.5,286047002.2,Y
1570029895.4,286046996.7,P
1570029915.2,286046997.8,N
1570029935.0,286046996.9,N
1570029935.9,286046996.9,N
1570029955.8,286046998.0,N
1570029975.6,286046995.3,N
1570029995.5,286046996.5,N
1570030015.3,286046999.3,N
1570030035.1,286046996.6,N
1570030055.9,286046996.5,N
1570030075.7,286046998.4,N
1570030095.5,286046998.5,N
1570030115.4,286047000.5,N
1570030135.2,286046998.7,N
1570030155.1,286046999.1,N
1570030156.0,286046999.1,N
1570030175.8,286046998.8,N
1570030195.6,286046998.7,N
1570030215.5,286046999.0,N
1570030235.3,286046999.2,N
1570030255.2,286046996.6,N
1570030275.9,286046997.4,N
1570030295.7,286046997.2,N
1570030315.6,286047001.2,N
1570030335.4,286046999.1,N
1570030355.2,286046998.3,N
1570030375.1,286046999.4,N
1570030376.0,286046999.4,N
1570030395.8,286047001.0,N
1570030415.7,286047001.2,N
1570030435.5,286047001.2,N
1570030455.3,286047000.8,N
1570030475.2,286047000.1,N
1570030495.0,286046998.5,N
1570030495.9,286046998.5,N
1570030515.8,286047001.0,N
1570030535.6,286047000.3,N
1570030555.4,286047000.5,N
1570030575.3,286047001.7,N
1570030595.1,286047004.0,N
1570030615.9,286047005.6,Y
1570030635.7,286047005.2,P
1570030655.5,286047007.4,N
1570030675.4,286047007.6,N
1570030695.2,286047007.0,N
1570030715.0,286047007.4,N
1570030716.0,286047007.4,N
1570030735.8,286047007.0,N
1570030755.6,286047007.0,N
1570030775.5,286047007.1,N
1570030795.3,286047007.3,Y
1570030815.2,286047000.7,P
1570030835.9,286046997.0,N
1570030855.7,286046997.0,N
1570030875.6,286046997.4,N
1570030895.4,286046995.3,N
1570030915.2,286046997.9,N
1570030935.1,286046998.0,N
1570030936.0,286046998.0,N
1570030955.8,286046997.2,N
1570030975.7,286046995.3,N
1570030995.5,286046995.1,N
1570031015.3,286046995.4,N
1570031035.2,286046995.4,N
1570031055.0,286046995.5,N
1570031055.9,286046995.5,N
1570031075.8,286046997.7,N
1570031095.6,286046997.8,N
1570031115.4,286046997.9,N
1570031135.3,286046995.5,N
1570031155.1,286046996.0,N
1570031175.9,286046994.8,N
1570031195.7,286046994.1,N
1570031215.5,286046991.8,Y
1570031235.4,286046995.7,P
1570031255.2,286046996.1,P
1570031275.1,286046995.2,P
1570031276.0,286046995.2,Y
1570031295.8,286047001.0,P
1570031315.6,286046999.8,N
1570031335.5,286047002.4,N
1570031355.3,286047002.5,N
1570031375.2,286047002.8,N
1570031395.9,286047000.5,N
1570031415.7,286047000.9,N
1570031435.6,286047000.6,N
1570031455.4,286047000.9,N
1570031475.2,286047000.4,N
1570031495.1,286046999.9,N
1570031496.0,286046999.9,N
1570031515.8,286047000.4,N
1570031535.7,286047002.5,N
1570031555.5,286047002.1,N
1570031575.3,286047002.0,N
1570031595.2,286046999.9,N
1570031615.0,286047000.5,N
1570031615.9,286047000.5,N
1570031635.8,286047000.9,N
1570031655.6,286047000.4,N
1570031675.4,286047000.3,N
1570031695.3,286047000.8,N
1570031715.1,286046997.3,N
1570031735.8,286046996.8,N
1570031755.7,286046995.3,N
1570031775.5,286046996.4,N
1570031795.4,286046995.0,N
1570031815.2,286046995.2,N
1570031835.0,286046998.0,N
1570031835.9,286046998.0,N
1570031855.8,286046997.7,N
1570031875.6,286046997.8,N
1570031895.5,286046995.1,N
1570031915.3,286046994.7,N
1570031935.1,286046993.9,N
1570031955.9,286046995.9,N
1570031975.7,286046995.1,N
1570031995.5,286046995.1,N
